Location: High Cliff State Park
(44.1557°N, 88.2948°W)
Time: 15:29:21
(UTC-05:00)

Amateur Radio Satellites - All Passes

Search period start: 28 September 2016 14:59
Search period end: 29 September 2016 14:59
Location: High Cliff State Park, 44.1557°N, 88.2948°W

Satellite Date Start Highest point End Downlink Frequencies (MHz)
Time Altitude Azimuth
TISAT 1 28 Sep 15:03:55 15:07:45 36° 290° (WNW) 15:11:34 437.305
Oscar 19 28 Sep 15:14:52 15:16:04 11° 273° (W) 15:17:16 437.125/150
PCSat 28 Sep 15:15:54 15:19:11 16° 256° (WSW) 15:22:27 145.827
PHONESAT 2.4 28 Sep 15:32:12 15:33:53 14° 205° (SSW) 15:35:34 2401.200-2431.200
ITUPSAT 1 28 Sep 15:40:29 15:45:20 89° 289° (WNW) 15:50:09 437.325
MOZHAYETS 4 28 Sep 15:49:44 15:53:25 23° 93° (E) 15:57:05
SWISSCUBE 28 Sep 15:53:19 15:58:03 60° 288° (WNW) 16:02:46 437.505
AO-7 28 Sep 15:56:50 16:05:06 67° 255° (WSW) 16:13:24 29.400- 29.500
AIST 1 28 Sep 16:04:02 16:08:07 40° 77° (ENE) 16:12:08
ITAMSAT 1 28 Sep 16:05:54 16:10:06 25° 266° (W) 16:14:19 435.822/435.867
BEESAT 28 Sep 16:06:18 16:10:56 50° 289° (WNW) 16:15:33 436.000
KKS-1 28 Sep 16:10:17 16:13:44 22° 94° (E) 16:17:09 437.445
Cosmos 2491 28 Sep 16:23:24 16:31:42 44° 288° (WNW) 16:40:05 435.465 / 435.565
O/OREOS (USA 219) 28 Sep 16:24:35 16:28:48 34° 59° (ENE) 16:32:58 437.305
SO-50 28 Sep 16:26:43 16:31:17 40° 313° (NW) 16:35:48 436.795
YUBILEINY 28 Sep 16:27:44 16:33:30 20° 283° (WNW) 16:39:16 435.215
HORYU 2 28 Sep 16:29:38 16:33:35 33° 68° (ENE) 16:37:33 437.375
CUTE-I 28 Sep 16:33:43 16:35:25 11° 55° (NE) 16:37:06 437.470
Cubesat XI-IV 28 Sep 16:33:51 16:35:29 11° 55° (NE) 16:37:08 437.490
GOMX 1 28 Sep 16:39:53 16:42:30 14° 60° (ENE) 16:45:03 467.674
STARS 28 Sep 16:41:57 16:45:25 23° 94° (E) 16:48:52 437.465
BRITE-PL 28 Sep 16:51:09 16:56:20 37° 68° (ENE) 17:01:24 437.365/2234.400
Cosmos 2504 28 Sep 16:52:13 16:58:24 30° 275° (W) 17:04:56 435.465 / 435.565
LilacSat-2 28 Sep 16:59:52 17:00:58 11° 62° (ENE) 17:02:05 437.200
CUBESAT XI-V 28 Sep 17:11:26 17:15:05 22° 93° (E) 17:18:41 437.345
NOAA 18 28 Sep 17:17:57 17:22:13 24° 61° (ENE) 17:26:29 137.9125
ITUPSAT 1 28 Sep 17:20:33 17:22:26 12° 302° (WNW) 17:24:19 437.325
MOZHAYETS 4 28 Sep 17:26:22 17:30:42 40° 290° (WNW) 17:35:01
CUSAT 1 28 Sep 17:35:25 17:38:05 13° 74° (ENE) 17:40:55 437.405
AIST 1 28 Sep 17:42:31 17:45:21 18° 274° (W) 17:48:12
KKS-1 28 Sep 17:46:19 17:50:25 38° 291° (WNW) 17:54:29 437.445
NOAA 15 28 Sep 17:50:26 17:55:39 62° 71° (ENE) 18:00:55 137.62
AO-7 28 Sep 17:56:13 17:59:24 12° 275° (W) 18:02:36 29.400- 29.500
O/OREOS (USA 219) 28 Sep 18:04:12 18:08:04 27° 257° (WSW) 18:11:56 437.305
HORYU 2 28 Sep 18:06:34 18:10:11 24° 265° (W) 18:13:49 437.375
Cosmos 2499 28 Sep 18:08:10 18:11:57 14° 59° (ENE) 18:15:49 435.465 / 435.565
CUTE-I 28 Sep 18:09:14 18:14:31 73° 73° (ENE) 18:19:51 437.470
Cubesat XI-IV 28 Sep 18:09:20 18:14:37 73° 73° (ENE) 18:19:57 437.490
HO-68 28 Sep 18:10:22 18:15:27 21° 54° (NE) 18:20:32 435.675
SO-50 28 Sep 18:12:01 18:13:02 11° 334° (NNW) 18:14:05 436.795
GOMX 1 28 Sep 18:14:31 18:19:56 90° 269° (W) 18:25:05 467.674
STARS 28 Sep 18:17:52 18:21:52 35° 291° (WNW) 18:25:50 437.465
BRITE-PL 28 Sep 18:29:37 18:34:45 35° 265° (W) 18:39:50 437.365/2234.400
LilacSat-2 28 Sep 18:31:02 18:34:45 62° 259° (W) 18:38:31 437.200
DOVE 4 28 Sep 18:32:24 18:37:20 62° 74° (ENE) 18:41:59 437.250
RS-15 28 Sep 18:36:47 18:45:41 27° 100° (E) 18:54:51 29.354- 29.394
CUBESAT XI-V 28 Sep 18:48:12 18:52:37 41° 290° (WNW) 18:57:00 437.345
GONETS M04 28 Sep 18:51:41 18:59:34 35° 68° (ENE) 19:07:21
NOAA 18 28 Sep 18:57:11 19:02:30 53° 259° (W) 19:07:53 137.9125
CUBEBUG 2 28 Sep 19:08:15 19:08:41 10° 60° (ENE) 19:09:08 437.445
DANDE 28 Sep 19:10:41 19:15:06 25° 82° (E) 19:20:28 436.750
CUSAT 1 28 Sep 19:12:02 19:18:22 69° 95° (E) 19:26:02 437.405
COMPASS 1 28 Sep 19:12:47 19:15:12 15° 63° (ENE) 19:17:37 437.405
UWE-3 28 Sep 19:24:53 19:25:01 10° 60° (ENE) 19:25:09 435.000/436.395/437.385
NOAA 15 28 Sep 19:32:13 19:35:50 18° 269° (W) 19:39:29 137.62
CINEMA 3 28 Sep 19:38:45 19:43:12 79° 76° (ENE) 19:47:30 145.822/145.860
CUTE 1.7 + AOD 2 28 Sep 19:41:01 19:45:09 59° 74° (ENE) 19:49:22 437.475
SEEDS 28 Sep 19:41:05 19:45:02 41° 71° (ENE) 19:49:02 437.485
ISS 28 Sep 19:41:27 19:43:52 19° 135° (SE) 19:46:17 145.825
CANX-2 28 Sep 19:42:22 19:46:35 71° 75° (ENE) 19:50:51 2200.000
Oscar 11 28 Sep 19:47:04 19:48:44 12° 60° (ENE) 19:50:23 145.826/435.025
ZACube-1 28 Sep 19:50:35 19:52:20 12° 61° (ENE) 19:54:05 437.345
CUTE-I 28 Sep 19:52:06 19:55:07 15° 271° (W) 19:58:10 437.470
Cubesat XI-IV 28 Sep 19:52:11 19:55:15 15° 271° (W) 19:58:20 437.490
HO-68 28 Sep 19:55:08 20:02:19 86° 255° (WSW) 20:09:32 435.675
GOMX 1 28 Sep 19:56:35 19:58:34 12° 272° (W) 20:00:31 467.674
Cosmos 2499 28 Sep 19:58:54 20:06:27 71° 80° (E) 20:14:34 435.465 / 435.565
AAUSAT CUBESAT 2 28 Sep 20:01:17 20:05:06 37° 71° (ENE) 20:08:59 437.432
STRAND 1 28 Sep 20:10:42 20:15:51 65° 102° (ESE) 20:20:57 437.568
DOVE 4 28 Sep 20:12:21 20:15:20 16° 269° (W) 20:18:15 437.250
AO-85 28 Sep 20:27:21 20:31:49 29° 115° (ESE) 20:36:03 145.980
CUBEBUG 2 28 Sep 20:40:29 20:44:42 83° 259° (W) 20:48:52 437.445
FUNcube-1 28 Sep 20:41:42 20:45:31 38° 71° (ENE) 20:49:23 145.935
RS-15 28 Sep 20:44:49 20:56:30 89° 303° (WNW) 21:08:51 29.354- 29.394
COMPASS 1 28 Sep 20:46:12 20:50:18 55° 260° (W) 20:54:26 437.405
GONETS M04 28 Sep 20:48:16 20:56:49 57° 270° (W) 21:05:17
DANDE 28 Sep 20:51:57 20:57:13 52° 288° (WNW) 21:04:07 436.750
CUSAT 1 28 Sep 20:55:37 21:01:10 27° 298° (WNW) 21:07:31 437.405
UWE-3 28 Sep 20:56:40 21:00:50 84° 259° (W) 21:05:00 435.000/436.395/437.385
DELFI C3 28 Sep 21:13:37 21:17:16 35° 71° (ENE) 21:20:59 145.870
ISS 28 Sep 21:16:51 21:20:05 61° 332° (NNW) 21:23:19 145.825
SEEDS 28 Sep 21:17:59 21:20:55 18° 268° (W) 21:23:54 437.485
CUTE 1.7 + AOD 2 28 Sep 21:19:23 21:21:24 13° 271° (W) 21:23:25 437.475
Oscar 11 28 Sep 21:19:57 21:24:14 76° 257° (WSW) 21:28:36 145.826/435.025
CINEMA 3 28 Sep 21:20:41 21:20:49 10° 271° (W) 21:20:56 145.822/145.860
CANX-2 28 Sep 21:21:47 21:22:56 11° 272° (W) 21:24:04 2200.000
ZACube-1 28 Sep 21:23:58 21:28:05 66° 259° (WSW) 21:32:14 437.345
PRISM 28 Sep 21:24:31 21:28:20 35° 98° (E) 21:32:07 437.425
HUMSAT D 28 Sep 21:36:25 21:40:04 32° 69° (ENE) 21:43:46 437.325/437.525
AAUSAT CUBESAT 2 28 Sep 21:37:37 21:40:43 20° 267° (W) 21:43:50 437.432
SO-50 28 Sep 21:38:10 21:38:53 10° 25° (NNE) 21:39:37 436.795
HO-68 28 Sep 21:46:51 21:51:00 16° 272° (W) 21:55:11 435.675
STRAND 1 28 Sep 21:51:03 21:54:30 18° 300° (WNW) 21:57:58 437.568
Cosmos 2499 28 Sep 21:53:12 21:58:54 24° 278° (W) 22:04:54 435.465 / 435.565
AO-85 28 Sep 22:07:15 22:12:09 44° 311° (NW) 22:16:45 145.980
UNISAT 6 28 Sep 22:08:45 22:11:33 16° 91° (E) 22:14:23 437.425
FUNcube-1 28 Sep 22:19:01 22:21:56 19° 268° (W) 22:24:52 145.935
VELOX 1 28 Sep 22:29:39 22:31:27 12° 59° (ENE) 22:33:15 145.980
CUBEBUG 1 28 Sep 22:30:19 22:32:55 15° 62° (ENE) 22:35:30 437.445
ESTCUBE 1 28 Sep 22:32:29 22:36:08 25° 66° (ENE) 22:39:50 437.505/2401.250
DANDE 28 Sep 22:41:34 22:42:15 10° 313° (NW) 22:42:55 436.750
ANTELSAT 28 Sep 22:43:07 22:47:12 36° 97° (E) 22:51:22 437.575/2403.000
M-CUBED/EXP-1 PRIME 28 Sep 22:46:46 22:49:18 17° 60° (ENE) 22:51:45 437.505
DELFI C3 28 Sep 22:49:20 22:52:14 19° 267° (W) 22:55:09 145.870
ISS 28 Sep 22:54:20 22:57:02 23° 352° (N) 22:59:44 145.825
JAS-2 28 Sep 22:56:35 22:59:19 12° 81° (E) 23:02:01 435.910
RS-15 28 Sep 23:00:01 23:10:50 38° 332° (NNW) 23:22:05 29.354- 29.394
PRISM 28 Sep 23:00:17 23:03:25 21° 295° (WNW) 23:06:33 437.425
TIGRISAT 28 Sep 23:03:12 23:07:32 56° 100° (E) 23:11:57 435.000
SPROUT 28 Sep 23:06:25 23:08:53 15° 62° (ENE) 23:11:19 437.525
HUMSAT D 28 Sep 23:12:34 23:15:45 22° 266° (W) 23:18:58 437.325/437.525
SO-50 28 Sep 23:16:17 23:20:39 40° 47° (NE) 23:24:54 436.795
AISAT 28 Sep 23:19:42 23:23:50 39° 69° (ENE) 23:27:57 437.250
UKube-1 28 Sep 23:21:51 23:25:01 20° 64° (ENE) 23:28:11 .
POPSAT HIP 1 28 Sep 23:24:36 23:26:35 13° 90° (E) 23:28:33 437.405
NANOSAT C BR1 28 Sep 23:39:24 23:42:18 18° 92° (E) 23:45:14 145.865
AUBIESAT-1 28 Sep 23:41:18 23:45:11 50° 68° (ENE) 23:48:47 437.475
UNISAT 6 28 Sep 23:44:16 23:48:33 51° 288° (WNW) 23:52:54 437.425
DX 1 28 Sep 23:51:17 23:55:30 50° 71° (ENE) 23:59:45 434.975-435.025
AO-85 28 Sep 23:52:26 23:53:46 11° 331° (NNW) 23:55:04 145.980
BEESAT 3 28 Sep 23:53:45 23:55:21 12° 109° (ESE) 23:56:56 437.485
50 SAT 28 Sep 23:58:26 00:02:04 88° 251° (WSW) 00:05:46 437.505
VELOX 1 29 Sep 00:02:49 00:07:17 80° 257° (WSW) 00:11:46 145.980
QB50P2 29 Sep 00:03:06 00:07:02 36° 98° (E) 00:10:57 145.880/145.840
CUBEBUG 1 29 Sep 00:04:22 00:08:43 60° 259° (W) 00:13:06 437.445
POLYITAN 1 29 Sep 00:05:18 00:09:14 36° 98° (E) 00:13:08 437.675
ESTCUBE 1 29 Sep 00:08:36 00:12:46 36° 263° (W) 00:16:59 437.505/2401.250
M-CUBED/EXP-1 PRIME 29 Sep 00:19:37 00:23:35 46° 254° (WSW) 00:27:16 437.505
ANTELSAT 29 Sep 00:20:14 00:23:45 24° 294° (WNW) 00:27:19 437.575/2403.000
TISAT 1 29 Sep 00:22:09 00:25:11 20° 65° (ENE) 00:28:13 437.305
ISS 29 Sep 00:31:25 00:34:14 25° 12° (NNE) 00:37:02 145.825
Cosmos 2491 29 Sep 00:35:11 00:42:05 24° 62° (ENE) 00:48:55 435.465 / 435.565
JAS-2 29 Sep 00:37:58 00:45:50 64° 100° (E) 00:53:15 435.910
BUGSAT 1 29 Sep 00:39:42 00:43:17 30° 97° (E) 00:46:50 437.445
SPROUT 29 Sep 00:40:10 00:44:21 57° 259° (W) 00:48:35 437.525
TIGRISAT 29 Sep 00:41:05 00:43:49 16° 297° (WNW) 00:46:35 435.000
DUCHIFAT 1 29 Sep 00:41:30 00:45:42 81° 103° (ESE) 00:49:54 145.980
QB50P1 29 Sep 00:44:52 00:49:06 81° 282° (WNW) 00:53:19 145.935-145.965
BEESAT 2 29 Sep 00:49:40 00:52:53 24° 114° (ESE) 00:56:08 435.950
UKube-1 29 Sep 00:56:40 01:00:47 42° 261° (W) 01:04:55 .
AISAT 29 Sep 00:56:59 01:00:25 22° 266° (W) 01:03:52 437.250
SO-50 29 Sep 00:57:08 01:00:56 26° 246° (WSW) 01:04:38 436.795
POPSAT HIP 1 29 Sep 00:58:35 01:02:44 59° 286° (WNW) 01:06:52 437.405
ITUPSAT 1 29 Sep 01:13:05 01:16:01 16° 60° (ENE) 01:18:57 437.325
NANOSAT C BR1 29 Sep 01:14:16 01:18:13 41° 289° (WNW) 01:22:11 145.865
AUBIESAT-1 29 Sep 01:17:47 01:19:49 14° 262° (W) 01:21:48 437.475
RS-15 29 Sep 01:17:57 01:28:06 28° 6° (N) 01:38:19 29.354- 29.394
SWISSCUBE 29 Sep 01:24:36 01:28:18 23° 64° (ENE) 01:32:02 437.505
BEESAT 3 29 Sep 01:28:35 01:32:27 65° 307° (NW) 01:36:24 437.485
DX 1 29 Sep 01:29:13 01:31:59 16° 268° (W) 01:34:44 434.975-435.025
BEESAT 29 Sep 01:37:07 01:41:06 27° 65° (ENE) 01:45:05 436.000
YUBILEINY 29 Sep 01:38:28 01:44:26 21° 77° (ENE) 01:50:23 435.215
QB50P2 29 Sep 01:39:24 01:42:37 21° 295° (WNW) 01:45:49 145.880/145.840
Oscar 19 29 Sep 01:41:14 01:45:44 30° 95° (E) 01:50:11 437.125/150
POLYITAN 1 29 Sep 01:41:36 01:44:48 21° 294° (WNW) 01:48:01 437.675
TISAT 1 29 Sep 01:56:37 02:00:34 40° 262° (W) 02:04:31 437.305
ISS 29 Sep 02:07:46 02:11:04 85° 30° (NNE) 02:14:22 145.825
BUGSAT 1 29 Sep 02:15:19 02:18:31 23° 293° (WNW) 02:21:43 437.445
DUCHIFAT 1 29 Sep 02:19:42 02:20:46 11° 300° (WNW) 02:21:50 145.980
JAS-2 29 Sep 02:23:34 02:30:17 32° 300° (WNW) 02:36:48 435.910
BEESAT 2 29 Sep 02:26:54 02:30:33 34° 312° (NW) 02:34:14 435.950
Cosmos 2491 29 Sep 02:31:08 02:40:01 81° 264° (W) 02:48:49 435.465 / 435.565
ITAMSAT 1 29 Sep 02:38:26 02:40:57 13° 89° (E) 02:43:26 435.822/435.867
Gurwin Techsat 1B 29 Sep 02:48:01 02:53:17 59° 101° (E) 02:58:31 435.225
ITUPSAT 1 29 Sep 02:48:36 02:53:20 65° 258° (WSW) 02:58:06 437.325
MOZHAYETS 4 29 Sep 02:53:04 02:56:50 26° 66° (ENE) 03:00:38
SWISSCUBE 29 Sep 03:01:18 03:05:50 43° 261° (W) 03:10:24 437.505
BEESAT 3 29 Sep 03:09:41 03:10:54 11° 327° (NNW) 03:12:07 437.485
KKS-1 29 Sep 03:09:43 03:13:22 25° 66° (ENE) 03:17:01 437.445
BEESAT 29 Sep 03:14:22 03:18:43 36° 262° (W) 03:23:08 436.000
Oscar 19 29 Sep 03:20:24 03:25:06 36° 293° (WNW) 03:29:46 437.125/150
AIST 2 29 Sep 03:21:45 03:25:29 35° 117° (ESE) 03:29:17 435.215
YUBILEINY 29 Sep 03:31:15 03:40:04 86° 277° (W) 03:48:53 435.215
RS-15 29 Sep 03:32:40 03:44:36 49° 39° (NE) 03:56:22 29.354- 29.394
Cosmos 2504 29 Sep 03:38:59 03:45:49 43° 89° (E) 03:52:29 435.465 / 435.565
STARS 29 Sep 03:40:00 03:43:35 25° 66° (ENE) 03:47:11 437.465
ISS 29 Sep 03:45:24 03:47:08 14° 228° (SW) 03:48:52 145.825
AO-7 29 Sep 03:56:50 04:04:27 39° 98° (E) 04:12:03 29.400- 29.500
CUSAT 1 29 Sep 04:05:26 04:08:53 13° 51° (NE) 04:12:08 437.405
PCSat 29 Sep 04:14:00 04:19:12 51° 115° (ESE) 04:24:27 145.827
ITAMSAT 1 29 Sep 04:15:46 04:21:01 81° 286° (WNW) 04:26:15 435.822/435.867
CUBESAT XI-V 29 Sep 04:16:03 04:19:56 26° 66° (ENE) 04:23:51 437.345
Gurwin Techsat 1B 29 Sep 04:28:55 04:32:48 21° 299° (WNW) 04:36:40 435.225
MOZHAYETS 4 29 Sep 04:29:41 04:33:51 34° 264° (W) 04:38:04
Cosmos 2491 29 Sep 04:30:18 04:35:21 17° 285° (WNW) 04:40:24 435.465 / 435.565
AIST 1 29 Sep 04:35:19 04:38:46 23° 88° (E) 04:42:13
KKS-1 29 Sep 04:45:44 04:49:46 34° 262° (W) 04:53:51 437.445
AO-85 29 Sep 04:57:32 05:01:24 33° 46° (NE) 05:05:01 145.980
AIST 2 29 Sep 05:00:29 05:04:02 27° 315° (NW) 05:07:37 435.215
STARS 29 Sep 05:15:51 05:19:48 33° 263° (W) 05:23:47 437.465
YUBILEINY 29 Sep 05:32:13 05:38:17 20° 301° (WNW) 05:44:21 435.215
Cosmos 2504 29 Sep 05:32:37 05:39:16 36° 289° (WNW) 05:45:47 435.465 / 435.565
CUSAT 1 29 Sep 05:45:11 05:52:53 58° 74° (ENE) 05:59:17 437.405
DANDE 29 Sep 05:45:33 05:52:56 33° 65° (ENE) 05:59:55 436.750
RS-15 29 Sep 05:45:36 05:57:44 65° 245° (WSW) 06:09:34 29.354- 29.394
AO-7 29 Sep 05:49:29 05:57:25 52° 297° (WNW) 06:05:21 29.400- 29.500
STRAND 1 29 Sep 05:51:40 05:54:38 16° 59° (ENE) 05:57:35 437.568
CUBESAT XI-V 29 Sep 05:52:50 05:57:09 36° 263° (W) 06:01:31 437.345
HORYU 2 29 Sep 05:54:47 05:59:09 53° 101° (E) 06:03:31 437.375
ITAMSAT 1 29 Sep 05:57:33 05:59:38 12° 304° (NW) 06:01:45 435.822/435.867
PCSat 29 Sep 05:58:10 06:02:51 29° 314° (NW) 06:07:34 145.827
LilacSat-2 29 Sep 06:04:23 06:06:05 13° 90° (E) 06:07:46 437.200
NOAA 15 29 Sep 06:04:54 06:08:46 20° 92° (E) 06:12:36 137.62
AIST 1 29 Sep 06:12:13 06:16:11 32° 285° (WNW) 06:20:09
GOMX 1 29 Sep 06:16:09 06:19:30 21° 92° (E) 06:22:44 467.674
CUTE-I 29 Sep 06:25:13 06:29:38 26° 94° (E) 06:34:03 437.470
Cubesat XI-IV 29 Sep 06:25:31 06:29:56 26° 94° (E) 06:34:19 437.490
DOVE 4 29 Sep 06:31:48 06:33:32 12° 89° (E) 06:35:13 437.250
BRITE-PL 29 Sep 06:33:03 06:37:54 80° 103° (ESE) 06:42:20 437.365/2234.400
AO-85 29 Sep 06:38:14 06:41:40 26° 246° (WSW) 06:44:57 145.980
O/OREOS (USA 219) 29 Sep 06:38:39 06:42:32 28° 104° (ESE) 06:46:27 437.305
NOAA 18 29 Sep 07:17:23 07:22:48 57° 102° (ESE) 07:28:11 137.9125
HO-68 29 Sep 07:23:01 07:27:13 16° 88° (E) 07:31:24 435.675
CUSAT 1 29 Sep 07:27:57 07:34:18 29° 276° (W) 07:39:48 437.405
DANDE 29 Sep 07:27:59 07:36:18 66° 265° (W) 07:43:57 436.750
STRAND 1 29 Sep 07:28:05 07:33:10 77° 257° (WSW) 07:38:19 437.568
CANX-2 29 Sep 07:28:08 07:29:29 11° 88° (E) 07:30:49 2200.000
HORYU 2 29 Sep 07:32:24 07:35:18 17° 298° (WNW) 07:38:13 437.375
CINEMA 3 29 Sep 07:32:51 07:35:17 15° 91° (E) 07:37:45 145.822/145.860
LilacSat-2 29 Sep 07:36:55 07:40:40 50° 287° (WNW) 07:44:24 437.200
NOAA 15 29 Sep 07:43:41 07:48:54 56° 289° (WNW) 07:54:02 137.62
AO-7 29 Sep 07:44:39 07:48:19 14° 320° (NW) 07:52:00 29.400- 29.500
GOMX 1 29 Sep 07:53:43 07:57:46 35° 291° (WNW) 08:01:37 467.674
GONETS M04 29 Sep 07:54:57 08:02:46 37° 85° (E) 08:10:36
RS-15 29 Sep 08:01:45 08:07:33 15° 267° (W) 08:13:19 29.354- 29.394
CUTE-I 29 Sep 08:04:47 08:09:51 45° 292° (WNW) 08:14:56 437.470
Cubesat XI-IV 29 Sep 08:05:06 08:10:11 45° 291° (WNW) 08:15:15 437.490
BEESAT 3 29 Sep 08:07:32 08:10:08 16° 39° (NE) 08:12:44 437.485
DOVE 4 29 Sep 08:07:32 08:11:40 58° 287° (WNW) 08:15:44 437.250
BRITE-PL 29 Sep 08:13:26 08:15:36 13° 302° (WNW) 08:17:42 437.365/2234.400
PRISM 29 Sep 08:15:10 08:18:53 32° 68° (ENE) 08:22:37 437.425
O/OREOS (USA 219) 29 Sep 08:17:43 08:21:50 33° 302° (WNW) 08:26:00 437.305
COMPASS 1 29 Sep 08:28:01 08:31:14 21° 93° (E) 08:34:27 437.405
CUBEBUG 2 29 Sep 08:30:14 08:33:12 18° 92° (E) 08:36:12 437.445
Cosmos 2499 29 Sep 08:37:55 08:44:46 53° 91° (E) 08:51:35 435.465 / 435.565
UWE-3 29 Sep 08:45:18 08:48:12 17° 92° (E) 08:51:09 435.000/436.395/437.385
SEEDS 29 Sep 08:58:38 09:02:54 66° 102° (ESE) 09:07:07 437.485
NOAA 18 29 Sep 08:58:54 09:03:03 23° 299° (WNW) 09:07:12 137.9125
CUTE 1.7 + AOD 2 29 Sep 08:59:55 09:04:15 84° 287° (WNW) 09:08:33 437.475
CANX-2 29 Sep 09:01:31 09:05:49 70° 285° (WNW) 09:10:05 2200.000
BEESAT 2 29 Sep 09:05:35 09:09:04 27° 45° (NE) 09:12:32 435.950
Oscar 11 29 Sep 09:06:31 09:09:30 18° 92° (E) 09:12:28 145.826/435.025
CINEMA 3 29 Sep 09:08:41 09:12:43 49° 287° (WNW) 09:16:49 145.822/145.860
HO-68 29 Sep 09:08:41 09:15:54 87° 107° (ESE) 09:23:04 435.675
UNISAT 6 29 Sep 09:09:32 09:12:19 17° 64° (ENE) 09:15:07 437.425
ZACube-1 29 Sep 09:11:00 09:14:18 21° 93° (E) 09:17:39 437.345
DANDE 29 Sep 09:13:37 09:17:27 14° 285° (WNW) 09:21:12 436.750
AAUSAT CUBESAT 2 29 Sep 09:16:55 09:21:05 56° 100° (E) 09:25:11 437.432
ANTELSAT 29 Sep 09:43:31 09:47:25 37° 70° (ENE) 09:51:21 437.575/2403.000
BEESAT 3 29 Sep 09:44:16 09:48:14 70° 238° (WSW) 09:52:10 437.485
GONETS M04 29 Sep 09:50:41 09:59:15 53° 285° (WNW) 10:07:54
PRISM 29 Sep 09:50:52 09:54:13 23° 265° (W) 09:57:35 437.425
COMPASS 1 29 Sep 10:03:01 10:06:54 36° 290° (WNW) 10:10:45 437.405
TIGRISAT 29 Sep 10:03:19 10:07:28 57° 73° (ENE) 10:11:39 435.000
FUNcube-1 29 Sep 10:03:28 10:07:47 70° 101° (E) 10:12:12 145.935
CUBEBUG 2 29 Sep 10:05:56 10:10:01 44° 288° (WNW) 10:14:13 437.445
POPSAT HIP 1 29 Sep 10:19:06 10:21:02 13° 61° (ENE) 10:22:58 437.405
UWE-3 29 Sep 10:20:45 10:24:53 46° 288° (WNW) 10:29:07 435.000/436.395/437.385
DELFI C3 29 Sep 10:23:55 10:27:50 47° 99° (E) 10:31:41 145.870
Cosmos 2499 29 Sep 10:32:14 10:38:13 29° 292° (WNW) 10:44:15 435.465 / 435.565
NANOSAT C BR1 29 Sep 10:33:20 10:36:06 17° 64° (ENE) 10:38:52 145.865
SEEDS 29 Sep 10:36:00 10:38:03 13° 298° (WNW) 10:40:06 437.485
Oscar 11 29 Sep 10:41:41 10:45:51 45° 289° (WNW) 10:50:01 145.826/435.025
BEESAT 2 29 Sep 10:43:16 10:46:55 33° 243° (WSW) 10:50:32 435.950
UNISAT 6 29 Sep 10:44:34 10:48:41 47° 261° (W) 10:52:49 437.425
ZACube-1 29 Sep 10:46:41 10:50:43 39° 289° (WNW) 10:54:49 437.345
JAS-2 29 Sep 10:51:33 10:57:28 34° 61° (ENE) 11:03:58 435.910
HUMSAT D 29 Sep 10:53:02 10:57:12 51° 100° (E) 11:01:23 437.325/437.525
AAUSAT CUBESAT 2 29 Sep 10:53:43 10:56:05 15° 297° (WNW) 10:58:28 437.432
QB50P2 29 Sep 10:57:06 11:00:52 33° 69° (ENE) 11:04:41 145.880/145.840
HO-68 29 Sep 10:57:42 11:02:45 21° 306° (NW) 11:07:48 435.675
POLYITAN 1 29 Sep 10:59:19 11:03:05 33° 69° (ENE) 11:06:52 437.675
PHONESAT 2.4 29 Sep 11:08:41 11:11:13 26° 165° (SSE) 11:13:46 2401.200-2431.200
PCSat 29 Sep 11:18:15 11:20:56 14° 33° (NNE) 11:23:37 145.827
ANTELSAT 29 Sep 11:21:04 11:24:16 20° 267° (W) 11:27:29 437.575/2403.000
BUGSAT 1 29 Sep 11:30:56 11:34:21 26° 68° (ENE) 11:37:47 437.445
DUCHIFAT 1 29 Sep 11:34:27 11:38:36 70° 74° (ENE) 11:42:46 145.980
QB50P1 29 Sep 11:38:22 11:42:34 89° 76° (ENE) 11:46:48 145.935-145.965
AIST 2 29 Sep 11:41:19 11:45:18 40° 49° (NE) 11:49:15 435.215
FUNcube-1 29 Sep 11:41:28 11:43:31 13° 298° (WNW) 11:45:35 145.935
TIGRISAT 29 Sep 11:42:26 11:44:33 13° 270° (W) 11:46:39 435.000
YUBILEINY 29 Sep 11:47:00 11:48:50 11° 49° (NE) 11:50:41 435.215
CUBEBUG 1 29 Sep 11:52:00 11:55:22 22° 94° (E) 11:58:43 437.445
POPSAT HIP 1 29 Sep 11:52:07 11:56:17 66° 259° (WSW) 12:00:29 437.405
VELOX 1 29 Sep 11:52:27 11:55:21 17° 92° (E) 11:58:14 145.980
GONETS M04 29 Sep 11:56:06 11:58:37 11° 310° (NW) 12:01:07
ESTCUBE 1 29 Sep 11:59:09 12:03:28 41° 98° (E) 12:07:44 437.505/2401.250
DELFI C3 29 Sep 11:59:50 12:02:17 16° 296° (WNW) 12:04:43 145.870
NANOSAT C BR1 29 Sep 12:07:27 12:11:29 46° 261° (W) 12:15:32 145.865
SPROUT 29 Sep 12:25:02 12:28:19 21° 94° (E) 12:31:33 437.525
HUMSAT D 29 Sep 12:29:44 12:32:26 17° 296° (WNW) 12:35:09 437.325/437.525
QB50P2 29 Sep 12:33:26 12:36:45 22° 266° (W) 12:40:04 145.880/145.840
Gurwin Techsat 1B 29 Sep 12:33:26 12:36:39 16° 59° (ENE) 12:39:51 435.225
POLYITAN 1 29 Sep 12:35:39 12:38:56 22° 266° (W) 12:42:15 437.675
JAS-2 29 Sep 12:35:46 12:42:08 52° 262° (W) 12:49:20 435.910
UKube-1 29 Sep 12:42:17 12:45:59 27° 96° (E) 12:49:38 .
PHONESAT 2.4 29 Sep 12:44:13 12:47:00 39° 182° (S) 12:49:48 2401.200-2431.200
AISAT 29 Sep 12:44:14 12:48:37 63° 101° (ESE) 12:52:56 437.250
AUBIESAT-1 29 Sep 12:52:54 12:55:35 23° 101° (ESE) 12:58:17 437.475
50 SAT 29 Sep 12:57:55 13:01:36 89° 301° (WNW) 13:05:15 437.505
Oscar 19 29 Sep 12:59:16 13:04:17 51° 70° (ENE) 13:09:19 437.125/150
PCSat 29 Sep 13:00:12 13:05:34 57° 55° (NE) 13:10:53 145.827
BUGSAT 1 29 Sep 13:06:12 13:09:40 27° 264° (W) 13:13:09 437.445
AO-7 29 Sep 13:09:39 13:14:09 16° 43° (NE) 13:18:39 29.400- 29.500
DX 1 29 Sep 13:13:47 13:18:08 77° 103° (ESE) 13:22:28 434.975-435.025
DUCHIFAT 1 29 Sep 13:13:52 13:14:46 11° 271° (W) 13:15:40 145.980
AIST 2 29 Sep 13:20:13 13:23:34 23° 247° (WSW) 13:26:54 435.215
CUBEBUG 1 29 Sep 13:27:47 13:31:45 36° 291° (WNW) 13:35:42 437.445
VELOX 1 29 Sep 13:27:50 13:32:05 48° 289° (WNW) 13:36:17 145.980
Cosmos 2504 29 Sep 13:29:18 13:33:54 17° 61° (ENE) 13:38:37 435.465 / 435.565
M-CUBED/EXP-1 PRIME 29 Sep 13:31:24 13:34:41 83° 288° (WNW) 13:37:57 437.505
ESTCUBE 1 29 Sep 13:36:32 13:40:01 22° 295° (WNW) 13:43:29 437.505/2401.250
TISAT 1 29 Sep 13:38:59 13:42:31 26° 95° (E) 13:46:01 437.305
Cosmos 2491 29 Sep 13:39:43 13:46:23 25° 79° (E) 13:53:05 435.465 / 435.565
YUBILEINY 29 Sep 13:39:43 13:48:11 52° 74° (ENE) 13:56:35 435.215
ITAMSAT 1 29 Sep 13:57:11 14:01:21 25° 63° (ENE) 14:05:33 435.822/435.867
SPROUT 29 Sep 14:00:26 14:04:21 36° 290° (WNW) 14:08:14 437.525
Gurwin Techsat 1B 29 Sep 14:10:38 14:15:56 78° 256° (WSW) 14:21:17 435.225
UKube-1 29 Sep 14:18:15 14:21:59 29° 293° (WNW) 14:25:42 .
PHONESAT 2.4 29 Sep 14:20:21 14:22:45 23° 198° (SSW) 14:25:10 2401.200-2431.200
AISAT 29 Sep 14:22:09 14:24:34 15° 299° (WNW) 14:27:00 437.250
AUBIESAT-1 29 Sep 14:27:28 14:30:00 21° 298° (WNW) 14:32:33 437.475
Oscar 19 29 Sep 14:39:56 14:43:52 22° 267° (W) 14:47:50 437.125/150
PCSat 29 Sep 14:44:24 14:48:33 23° 253° (WSW) 14:52:40 145.827
ITUPSAT 1 29 Sep 14:47:49 14:51:58 28° 95° (E) 14:56:07 437.325
DX 1 29 Sep 14:52:00 14:53:42 12° 301° (WNW) 14:55:24 434.975-435.025
